Location: Newark
(50.0306°N, 2.3272°E)
Time: 15:28:01
(UTC+00:00)

Explorer 7 - Visible Passes

Search period start: 08 December 2019 00:00
Search period end: 18 December 2019 00:00
Orbit: 485 x 680 km, 50.3° (Epoch: 07 December)

Date Brightness Start Highest point End Pass type
(mag) Time Alt. Az. Time Alt. Az. Time Alt. Az.
08 Dec 8.5 16:21:42 10° SSW 16:26:00 31° SE 16:30:19 10° E visible
08 Dec 7.2 18:01:21 10° WSW 18:06:16 76° SSE 18:07:24 52° E visible
08 Dec 9.5 19:42:02 10° W 19:43:43 21° W 19:43:43 21° W visible
09 Dec 8.1 16:26:11 10° SW 16:30:46 42° SSE 16:35:23 10° E visible
09 Dec 7.1 18:06:17 10° WSW 18:11:13 86° SSE 18:12:10 59° E visible
09 Dec 9.7 19:47:01 10° W 19:48:29 20° W 19:48:29 20° W visible
10 Dec 7.7 16:30:51 10° SW 16:35:37 54° SSE 16:40:25 10° ENE visible
10 Dec 7.1 18:11:15 10° W 18:16:12 88° N 18:16:56 65° E visible
10 Dec 9.8 19:51:59 10° W 19:53:15 18° W 19:53:15 18° W visible
11 Dec 7.5 16:35:38 10° WSW 16:40:30 68° SSE 16:45:23 10° ENE visible
11 Dec 7.1 18:16:14 10° W 18:21:11 86° N 18:21:42 72° ENE visible
11 Dec 9.9 19:56:58 10° WNW 19:58:01 16° W 19:58:01 16° W visible
12 Dec 7.3 16:40:31 10° WSW 16:45:26 80° SSE 16:50:09 11° E visible
12 Dec 7.0 18:21:13 10° W 18:26:10 88° N 18:26:29 79° E visible
12 Dec 10.0 20:01:57 10° WNW 20:02:48 15° W 20:02:48 15° W visible
13 Dec 7.3 16:45:28 10° W 16:50:23 89° S 16:54:58 12° E visible
13 Dec 7.1 18:26:11 10° W 18:31:08 85° SSW 18:31:17 83° SE visible
13 Dec 10.1 20:06:58 10° W 20:07:37 13° W 20:07:37 13° W visible
14 Dec 7.3 16:50:26 10° W 16:55:22 87° N 16:59:50 13° E visible
14 Dec 7.2 18:31:09 10° W 18:36:05 74° SSW 18:36:09 74° S visible
14 Dec 10.3 20:12:04 10° W 20:12:29 12° W 20:12:29 12° W visible
15 Dec 7.2 16:55:25 10° W 17:00:21 86° N 17:04:45 13° E visible
15 Dec 7.5 18:36:07 10° WNW 18:40:59 61° SSW 18:41:05 61° SSW visible
15 Dec 10.4 20:17:20 10° W 20:17:25 10° W 20:17:25 10° W visible
16 Dec 7.2 17:00:24 10° W 17:05:20 90° ENE 17:09:46 13° E visible
16 Dec 7.9 18:41:07 10° W 18:45:51 48° SSW 18:46:06 48° SSW visible
17 Dec 7.3 17:05:22 10° W 17:10:18 82° SSW 17:14:55 12° ESE visible
17 Dec 8.4 18:46:09 10° W 18:50:39 37° SSW 18:51:15 35° SSW visible
